星链-1246 (STARLINK-1246 )

导读 | 星芒AI

STARLINK-1246 是 SpaceX Starlink 卫星互联网项目中的一颗低轨卫星,属于第 12 批部署的星链卫星群。该卫星于 2021 年发射,运行在约 550 公里的近地轨道上,旨在为全球用户提供高速互联网服务。它采用先进的相控阵天线和激光通信技术,支持高带宽、低延迟的网络连接。STARLINK-1246 与其它星链卫星协同工作,提升网络覆盖范围与稳定性,尤其在偏远地区发挥重要作用。

基本信息
目录编号:
45235
目录名称:
STARLINK-1246
国际标识:
2020-012BK
轨道中心:
EARTH
卫星名称:
星链-1246
卫星全名:
星链-1246 (STARLINK-1246 )
卫星状态:
在轨 (已飞行2081 天)
发射日期:
2020-02-17 UTC
国别 :
美国 (US)
星等 :
--
轨道信息
数据来源 国际轨道数据
星历时间: 2025-10-28T13:10:37+0800
1天前
查看轨道信息
半长轴: 6925.354km
偏心率: 0.0001379
轨道倾角: 53.054°
近地点辐角 89.755°
升交点赤经 281.317°
平近点角 270.359°
近地点: 546.263km
远地点: 548.175km
周期: 95.592分钟
每日圈数: 15.063985
详细信息
固有亮度:
5
最大亮度:
2.5
卫星平台:
Starlink V1.0
覆盖范围:
全球
运营商:
太空探索技术公司
运营商所在国:
美国
制造商(研发单位):
太空探索技术公司
制造商所在国:
美国
使用方式:
暂无
卫星简介
星链(Starlink)计划是由太空探索技术公司(SpaceX)提出的一个巨型低轨卫星互联网星座项目,计划在2019年至2024年间在太空搭建由约1.2万颗卫星组成的“星链”网络,其中1584颗将部署在地球上空550千米处的近地轨道,并从2020年开始工作。该卫星仍在工作。
2D轨道图
3D轨道图
轨道高度分析图
轨道倾角分析图
轨道综合分析图
查看轨道综合分析图